Torna al catalogo

COSMOS 1459

AttivoMilitarePO
NORAD 14057·PAYLOAD·🇷🇺 Russia

Lanciato May 6, 1983 da Plesetsk Cosmodrome

Loading…

Prossimi Passaggi (prossime 24 ore)

TLE

AggiornatoSource: Space-Track

Epoca: Sep 14, 2026, 14:49 UTC

1 14057U 83042A   26257.61742573  .00000049  00000-0  34946-4 0  9994
2 14057  82.9703 113.6569 0048042 290.1880  69.4114 13.76829677178046

Traccia COSMOS 1459 in tempo reale con AllMySat

Download on the App Store